Weather History for KMML - August, 2013

Change the Weather History Date:

Saturday, August 24, 2013

  Actual Average Record
Temperature  
Mean Temperature 81 °F -  
Max Temperature 89 °F 79 °F 99 °F (1948)
Min Temperature 73 °F 59 °F 46 °F (1977)
Cooling Degree Days 16    
Growing Degree Days 31 (Base 50)    
Moisture  
Dew Point 69 °F    
Average Humidity 68    
Maximum Humidity 83    
Minimum Humidity 49    
Precipitation  
Precipitation 0.00 in - - ()
Sea Level Pressure  
Sea Level Pressure 29.92 in    
Wind  
Wind Speed 13 mph (South)    
Max Wind Speed 31 mph    
Max Gust Speed 38 mph    
Visibility 10 miles    
Events Thunderstorm    
Averages and records for this station are not official NWS values.
T = Trace of Precipitation, MM = Missing Value Source: NWS Daily Summary

Daily Weather History Graph

Daily Weather History Graph

Search for Another Location

Airport or City:

Trip Planner

Search our weather history database for the weather conditions in past years. The results will help you decide how hot, cold, wet, or windy it might be!

Date:

Astronomy

Aug. 24, 2013 Rise Set
Actual Time 6:36 AM CDT 8:13 PM CDT
Civil Twilight 6:06 AM CDT 8:43 PM CDT
Nautical Twilight 5:29 AM CDT 9:20 PM CDT
Astronomical Twilight 4:49 AM CDT 10:00 PM CDT
Moon 9:55 PM CDT (8/24) 10:49 AM CDT (8/24)
Length of Visible Light 14h 37m
Length of Day
13h 36m
Waning Gibbous, 84% of the Moon is Illuminated
Aug 24
Waning Gibbous
Aug 28
Last Quarter
Sep 5
New
Sep 12
First Quarter
Sep 19
Full

Hourly Weather History & Observations

Time (CDT) Temp. Heat Index Dew Point Humidity Pressure Visibility Wind Dir Wind Speed Gust Speed Precip Events Conditions
12:15 AM 73.4 °F - 68.0 °F 83% 29.99 in 10.0 mi SSE 11.5 mph - N/A   Clear
12:35 AM 73.4 °F - 68.0 °F 83% 29.99 in 10.0 mi SSE 10.4 mph - N/A   Clear
12:55 AM 73.4 °F - 68.0 °F 83% 29.99 in 10.0 mi SSE 11.5 mph - N/A   Clear
1:15 AM 73.4 °F - 68.0 °F 83% 29.99 in 7.0 mi SSE 10.4 mph - N/A   Clear
1:35 AM 73.4 °F - 68.0 °F 83% 29.99 in 10.0 mi SSE 11.5 mph - N/A   Clear
1:55 AM 73.4 °F - 68.0 °F 83% 29.98 in 10.0 mi SSE 11.5 mph - N/A   Clear
2:15 AM 73.4 °F - 68.0 °F 83% 29.98 in 9.0 mi SSE 9.2 mph - N/A   Clear
2:35 AM 73.4 °F - 68.0 °F 83% 29.98 in 8.0 mi SSE 9.2 mph - N/A   Clear
2:55 AM 73.4 °F - 68.0 °F 83% 29.98 in 8.0 mi South 9.2 mph - N/A   Clear
3:15 AM 73.4 °F - 68.0 °F 83% 29.98 in 8.0 mi South 10.4 mph - N/A   Clear
3:35 AM 73.4 °F - 68.0 °F 83% 29.98 in 8.0 mi SSE 11.5 mph - N/A   Clear
3:55 AM 73.4 °F - 68.0 °F 83% 29.98 in 8.0 mi SSE 12.7 mph - N/A   Clear
4:15 AM 73.4 °F - 68.0 °F 83% 29.97 in 10.0 mi SSE 12.7 mph - N/A   Clear
4:35 AM 73.4 °F - 68.0 °F 83% 29.97 in 10.0 mi South 11.5 mph - N/A   Clear
4:55 AM 73.4 °F - 68.0 °F 83% 29.97 in 10.0 mi SSE 4.6 mph - N/A   Clear
5:15 AM 73.4 °F - 68.0 °F 83% 29.97 in 10.0 mi Calm Calm - N/A   Clear
5:35 AM 73.4 °F - 66.2 °F 78% 29.97 in 10.0 mi South 8.1 mph - N/A   Clear
5:55 AM 73.4 °F - 66.2 °F 78% 29.96 in 10.0 mi South 13.8 mph - N/A Thunderstorm Clear
6:15 AM 75.2 °F - 66.2 °F 73% 29.96 in 10.0 mi Calm Calm - N/A   Scattered Clouds
6:35 AM 75.2 °F - 66.2 °F 73% 29.96 in 10.0 mi Calm Calm - N/A   Scattered Clouds
6:55 AM 73.4 °F - 66.2 °F 78% 29.95 in 10.0 mi Calm Calm - N/A   Clear
7:15 AM 73.4 °F - 66.2 °F 78% 29.95 in 10.0 mi Calm Calm - N/A   Partly Cloudy
7:35 AM 73.4 °F - 64.4 °F 73% 29.95 in 9.0 mi South 16.1 mph 19.6 mph N/A   Scattered Clouds
7:55 AM 73.4 °F - 64.4 °F 73% 29.96 in 10.0 mi South 15.0 mph - N/A   Scattered Clouds
8:15 AM 73.4 °F - 64.4 °F 73% 29.95 in 10.0 mi South 13.8 mph 21.9 mph N/A   Mostly Cloudy
8:35 AM 73.4 °F - 64.4 °F 73% 29.95 in 10.0 mi Calm Calm - N/A   Mostly Cloudy
8:55 AM 73.4 °F - 62.6 °F 69% 29.95 in 10.0 mi Calm Calm - N/A   Mostly Cloudy
9:15 AM 75.2 °F - 64.4 °F 69% 29.95 in 10.0 mi Calm Calm - N/A   Mostly Cloudy
9:35 AM 75.2 °F - 64.4 °F 69% 29.94 in 10.0 mi Calm Calm - N/A   Mostly Cloudy
9:55 AM 77.0 °F - 64.4 °F 65% 29.94 in 10.0 mi SSW 10.4 mph 25.3 mph N/A   Partly Cloudy
10:15 AM 80.6 °F 82.3 °F 64.4 °F 58% 29.93 in 10.0 mi South 9.2 mph 28.8 mph N/A   Clear
10:35 AM 82.4 °F 83.9 °F 64.4 °F 54% 29.93 in 10.0 mi South 17.3 mph 24.2 mph N/A   Clear
10:55 AM 84.2 °F 86.6 °F 66.2 °F 55% 29.93 in 10.0 mi South 20.7 mph 28.8 mph N/A   Clear
11:15 AM 84.2 °F 86.6 °F 66.2 °F 55% 29.92 in 10.0 mi South 24.2 mph 33.4 mph N/A   Clear
11:35 AM 86.0 °F 88.2 °F 66.2 °F 51% 29.91 in 10.0 mi South 23.0 mph 36.8 mph N/A   Clear
11:55 AM 87.8 °F 90.4 °F 66.2 °F 49% 29.91 in 10.0 mi South 31.1 mph 38.0 mph N/A   Clear
12:15 PM 87.8 °F 90.4 °F 66.2 °F 49% 29.90 in 10.0 mi South 20.7 mph 34.5 mph N/A   Clear
12:35 PM 86.0 °F 89.4 °F 68.0 °F 55% 29.90 in 10.0 mi South 20.7 mph 32.2 mph N/A   Clear
12:55 PM 84.2 °F 87.3 °F 68.0 °F 58% 29.90 in 10.0 mi SSW 24.2 mph 31.1 mph N/A   Clear
1:15 PM 84.2 °F 86.6 °F 66.2 °F 55% 29.89 in 10.0 mi South 24.2 mph 31.1 mph N/A   Clear
1:35 PM 86.0 °F 88.2 °F 66.2 °F 51% 29.89 in 10.0 mi South 18.4 mph 24.2 mph N/A   Clear
1:55 PM 84.2 °F 86.6 °F 66.2 °F 55% 29.89 in 10.0 mi South 19.6 mph 29.9 mph N/A   Clear
2:15 PM 84.2 °F 86.6 °F 66.2 °F 55% 29.88 in 10.0 mi South 21.9 mph 29.9 mph N/A   Clear
2:35 PM 87.8 °F 92.6 °F 69.8 °F 55% 29.88 in 10.0 mi South 20.7 mph 26.5 mph N/A   Clear
2:55 PM 89.6 °F 94.7 °F 69.8 °F 52% 29.88 in 10.0 mi SSW 23.0 mph 31.1 mph N/A   Clear
3:15 PM 89.6 °F 94.7 °F 69.8 °F 52% 29.87 in 10.0 mi South 25.3 mph 33.4 mph N/A   Clear
3:35 PM 89.6 °F 96.2 °F 71.6 °F 55% 29.87 in 10.0 mi South 25.3 mph 34.5 mph N/A   Clear
3:55 PM 89.6 °F 96.2 °F 71.6 °F 55% 29.87 in 10.0 mi South 18.4 mph 35.7 mph N/A   Clear
4:15 PM 89.6 °F 96.2 °F 71.6 °F 55% 29.86 in 10.0 mi South 27.6 mph 38.0 mph N/A   Clear
4:35 PM 89.6 °F 96.2 °F 71.6 °F 55% 29.86 in 10.0 mi South 23.0 mph 34.5 mph N/A   Clear
4:55 PM 89.6 °F 96.2 °F 71.6 °F 55% 29.87 in 10.0 mi SSW 24.2 mph 33.4 mph N/A   Clear
5:15 PM 89.6 °F 96.2 °F 71.6 °F 55% 29.87 in 10.0 mi SSW 26.5 mph 33.4 mph N/A   Clear
5:35 PM 89.6 °F 96.2 °F 71.6 °F 55% 29.87 in 10.0 mi SSW 28.8 mph 36.8 mph N/A   Clear
5:55 PM 89.6 °F 96.2 °F 71.6 °F 55% 29.87 in 10.0 mi SSW 26.5 mph 32.2 mph N/A   Clear
6:15 PM 89.6 °F 98.2 °F 73.4 °F 59% 29.87 in 10.0 mi SSW 20.7 mph 26.5 mph N/A   Clear
6:35 PM 87.8 °F 93.8 °F 71.6 °F 58% 29.88 in 10.0 mi SSW 20.7 mph 28.8 mph N/A   Clear
6:55 PM 87.8 °F 95.6 °F 73.4 °F 62% 29.88 in 10.0 mi SSW 18.4 mph 26.5 mph N/A   Clear
7:15 PM 87.8 °F 93.8 °F 71.6 °F 58% 29.88 in 10.0 mi South 20.7 mph 28.8 mph N/A   Clear
7:35 PM 86.0 °F 93.4 °F 73.4 °F 66% 29.88 in 10.0 mi South 15.0 mph 21.9 mph N/A   Clear
7:55 PM 84.2 °F 90.9 °F 73.4 °F 70% 29.88 in 10.0 mi South 13.8 mph 24.2 mph N/A   Clear
8:15 PM 84.2 °F 90.9 °F 73.4 °F 70% 29.88 in 10.0 mi Calm Calm - N/A   Clear
8:35 PM 82.4 °F 87.2 °F 71.6 °F 70% 29.89 in 10.0 mi Calm Calm - N/A   Clear
8:55 PM 82.4 °F 87.2 °F 71.6 °F 70% 29.90 in 10.0 mi South 13.8 mph 18.4 mph N/A   Clear
9:15 PM 82.4 °F 87.2 °F 71.6 °F 70% 29.91 in 10.0 mi South 12.7 mph - N/A   Clear
9:35 PM 82.4 °F 87.2 °F 71.6 °F 70% 29.91 in 10.0 mi South 12.7 mph 21.9 mph N/A   Clear
9:55 PM 82.4 °F 87.2 °F 71.6 °F 70% 29.91 in 10.0 mi South 13.8 mph 21.9 mph N/A   Clear
10:15 PM 80.6 °F 84.6 °F 71.6 °F 74% 29.92 in 10.0 mi South 13.8 mph 23.0 mph N/A   Clear
10:35 PM 80.6 °F 84.6 °F 71.6 °F 74% 29.92 in 10.0 mi South 17.3 mph 21.9 mph N/A   Clear
10:55 PM 80.6 °F 84.6 °F 71.6 °F 74% 29.92 in 10.0 mi South 18.4 mph - N/A   Clear
11:15 PM 80.6 °F 84.6 °F 71.6 °F 74% 29.92 in 10.0 mi South 16.1 mph 23.0 mph N/A   Clear
11:35 PM 80.6 °F 84.6 °F 71.6 °F 74% 29.92 in 10.0 mi South 16.1 mph 21.9 mph N/A   Clear
11:55 PM 80.6 °F 83.9 °F 69.8 °F 70% 29.92 in 10.0 mi South 16.1 mph 23.0 mph N/A   Clear